Regional Weather Roundup
Issued by NWS

Home | Current Version | Previous Version | Text Only | Print | Product List | Glossary Off
Versions: 1 2 3 4 5 6 7 8 9 10 11 12 13 14 15 16 17 18 19 20 21 22 23 24 25 26 27 28 29 30 31 32 33 34 35 36 37 38 39 40 41 42 43 44 45 46 47 48 49 50

000
ASUS43 KLSX 221610
RWRMO

WEATHER SUMMARY FOR MISSOURI
NATIONAL WEATHER SERVICE SPRINGFIELD MO
1100 AM CDT MON MAY 22 2017

NOTE: "FAIR" INDICATES FEW OR NO CLOUDS BELOW 12,000 FEET WITH NO
       SIGNIFICANT WEATHER AND/OR OBSTRUCTIONS TO VISIBILITY.
       CURRENT SKY AND/OR WEATHER CONDITIONS ARE NOT AVAILABLE FOR
       CHILLICOTHE AND FARMINGTON.

MOZ001>031-035>038-043-044-053-054-221700-
...NORTHERN AND WESTERN MISSOURI...

CITY           SKY/WX    TMP DP  RH WIND       PRES   REMARKS
KANSAS CTY INT RAIN      60  55  83 W10       30.06R
KANSAS C DTWN  LGT RAIN  66  53  63 W14G25    30.06R
LEE`S SUMMIT   CLOUDY    65  54  67 SW14      30.07S
ST JOSEPH      LGT RAIN  60  57  89 SW14G24   30.04R
CHILLICOTHE      N/A     69  56  62 S9        30.02F
KIRKSVILLE     CLOUDY    65  51  60 S13       30.03F

$$
MOZ066>068-077>081-088>096-101>105-221700-
...SOUTHWEST MISSOURI...

CITY           SKY/WX    TMP DP  RH WIND       PRES   REMARKS
SPRINGFIELD    SUNNY     69  51  52 S16       30.11F
JOPLIN         SUNNY     72  54  53 S12       30.10F
BRANSON        PTSUNNY   68  48  49 S12       30.15F

$$
MOZ032>034-039>042-045>050-055>058-069>072-221700-
...CENTRAL MISSOURI...

CITY           SKY/WX    TMP DP  RH WIND       PRES   REMARKS
COLUMBIA       SUNNY     70  51  51 S17G23    30.09F
JEFFERSON CITY SUNNY     71  48  43 S14       30.09F
ROLLA          SUNNY     67  52  58 S10       30.11F
SEDALIA        MOSUNNY   69  55  60 SW21      30.09F
WHITEMAN AFB   PTSUNNY   69  57  65 SW15      30.06F
WARRENSBURG    CLOUDY    66  52  59 SW13G20   30.07F
OSAGE BEACH    MOSUNNY   71  52  50 S9        30.11F

$$
MOZ051-052-059>065-221700-
...EAST CENTRAL MISSOURI...

CITY           SKY/WX    TMP DP  RH WIND       PRES   REMARKS
ST LOUIS INTL  MOSUNNY   73  43  33 S9        30.10F
SPIRIT OF STL  PTSUNNY   70  44  39 SW9       30.09F
ST CHARLES     SUNNY     70  47  43 S8        30.08F

$$
MOZ072>076-082>087-097>100-106>115-221700-
...SOUTH CENTRAL AND SOUTHEAST MISSOURI...

CITY           SKY/WX    TMP DP  RH WIND       PRES   REMARKS
CAPE GIRARDEAU MOSUNNY   67  49  52 E5        30.13F
FARMINGTON     MOSUNNY   67  46  47 VRB3      30.14S
POPLAR BLUFF   MOSUNNY   68  49  50 E6        30.13F
WEST PLAINS    CLOUDY    66  43  43 SE9       30.15F

$$



USA.gov is the U.S. government's official web portal to all federal, state and local government web resources and services.